TimeEDT,TemperatureF,Dew PointF,Humidity,Sea Level PressureIn,VisibilityMPH,Wind Direction,Wind SpeedMPH,Gust SpeedMPH,PrecipitationIn,Events,Conditions,WindDirDegrees,DateUTC
12:54 AM,44.1,39.9,85,29.59,10.0,South,10.4,-,N/A,,Mostly Cloudy,190,2013-04-01 04:54:00
1:54 AM,43.0,39.0,86,29.59,10.0,WSW,16.1,24.2,0.00,Rain,Light Rain,240,2013-04-01 05:54:00
2:54 AM,41.0,37.9,89,29.59,7.0,SSW,8.1,-,0.00,Rain,Light Rain,210,2013-04-01 06:54:00
3:54 AM,39.9,37.9,93,29.60,8.0,West,12.7,17.3,0.01,Rain,Light Rain,280,2013-04-01 07:54:00
4:01 AM,39.2,37.4,93,29.58,10.0,West,6.9,17.3,0.00,Rain,Light Rain,260,2013-04-01 08:01:00
4:22 AM,39.2,37.4,93,29.58,5.0,SSW,6.9,-,0.00,Rain,Light Rain,200,2013-04-01 08:22:00
4:54 AM,37.9,37.0,97,29.61,6.0,SW,8.1,-,0.00,Rain,Light Rain,230,2013-04-01 08:54:00
5:50 AM,37.4,35.6,93,29.62,9.0,SW,11.5,-,0.00,Rain,Light Rain,230,2013-04-01 09:50:00
5:54 AM,37.0,35.1,93,29.63,8.0,SW,9.2,-,0.00,Rain-Snow,Light Rain,230,2013-04-01 09:54:00
6:42 AM,35.6,30.2,81,29.65,8.0,NW,15.0,24.2,0.00,Rain-Snow,Light Rain,310,2013-04-01 10:42:00
6:54 AM,33.1,28.9,85,29.68,4.0,NW,23.0,33.4,0.00,Snow,Light Snow,310,2013-04-01 10:54:00
7:09 AM,32.0,28.4,87,29.67,4.0,NW,15.0,24.2,0.00,Snow,Light Snow,310,2013-04-01 11:09:00
7:18 AM,32.0,28.4,87,29.68,2.5,WNW,16.1,23.0,0.00,Snow,Light Snow,300,2013-04-01 11:18:00
7:40 AM,32.0,28.4,87,29.69,4.0,WNW,18.4,24.2,0.00,Snow,Light Snow,300,2013-04-01 11:40:00
7:54 AM,32.0,26.1,79,29.72,10.0,WNW,15.0,-,0.00,Snow,Light Snow,300,2013-04-01 11:54:00
8:06 AM,32.0,24.8,75,29.71,10.0,WNW,19.6,26.5,0.00,,Mostly Cloudy,300,2013-04-01 12:06:00
8:54 AM,32.0,23.0,69,29.76,10.0,West,20.7,25.3,0.00,,Mostly Cloudy,280,2013-04-01 12:54:00
9:54 AM,33.1,19.9,59,29.78,10.0,West,20.7,28.8,N/A,,Mostly Cloudy,280,2013-04-01 13:54:00
10:54 AM,34.0,16.0,48,29.79,10.0,West,24.2,34.5,N/A,,Mostly Cloudy,260,2013-04-01 14:54:00
11:54 AM,34.0,14.0,44,29.83,10.0,West,23.0,29.9,N/A,,Mostly Cloudy,280,2013-04-01 15:54:00
12:54 PM,36.0,15.1,43,29.84,10.0,WSW,21.9,38.0,0.00,,Mostly Cloudy,250,2013-04-01 16:54:00
1:54 PM,35.1,16.0,46,29.86,10.0,West,20.7,29.9,0.00,,Mostly Cloudy,270,2013-04-01 17:54:00
2:54 PM,36.0,17.1,46,29.87,10.0,West,20.7,31.1,N/A,,Mostly Cloudy,270,2013-04-01 18:54:00
3:54 PM,35.1,14.0,42,29.90,10.0,West,20.7,31.1,0.00,Snow,Light Snow,270,2013-04-01 19:54:00
4:35 PM,33.8,14.0,44,29.89,10.0,West,21.9,32.2,0.00,,Mostly Cloudy,280,2013-04-01 20:35:00
4:54 PM,34.0,14.0,44,29.92,10.0,West,18.4,29.9,0.00,,Mostly Cloudy,270,2013-04-01 20:54:00
5:50 PM,30.2,21.2,69,29.91,1.8,WSW,15.0,28.8,0.00,Snow,Light Snow,250,2013-04-01 21:50:00
5:51 PM,30.9,21.9,69,29.94,1.8,WSW,12.7,28.8,0.00,Snow,Light Snow,250,2013-04-01 21:51:00
5:54 PM,30.2,23.0,75,29.91,5.0,WSW,12.7,21.9,0.00,Snow,Light Snow,250,2013-04-01 21:54:00
6:43 PM,28.4,24.8,86,29.93,1.0,WNW,15.0,29.9,0.00,Snow,Light Snow,290,2013-04-01 22:43:00
6:54 PM,28.9,23.0,78,29.96,10.0,WNW,10.4,-,0.00,Snow,Light Snow,290,2013-04-01 22:54:00
7:54 PM,30.0,19.9,66,29.96,10.0,West,13.8,-,0.00,Snow,Light Snow,280,2013-04-01 23:54:00
8:51 PM,30.2,17.6,60,29.93,10.0,WNW,16.1,24.2,0.00,,Mostly Cloudy,290,2013-04-02 00:51:00
8:54 PM,30.0,17.1,59,29.96,10.0,WNW,17.3,24.2,0.00,,Mostly Cloudy,300,2013-04-02 00:54:00
9:54 PM,28.9,18.0,64,29.99,10.0,West,12.7,-,N/A,,Scattered Clouds,280,2013-04-02 01:54:00
10:54 PM,28.0,17.1,63,29.99,10.0,West,8.1,17.3,N/A,,Mostly Cloudy,280,2013-04-02 02:54:00
11:54 PM,27.0,16.0,63,29.99,10.0,West,11.5,-,N/A,,Scattered Clouds,270,2013-04-02 03:54:00